Probability
0 0 0 0 0 0 0 0 0 0 0 0 0 0 0 0 0 0 0 0 0 0 0 0 0 0 0 0 0 0 0 0 0 0 0 0 0 0 0 0 0 0 0 0 0 0 0 0 0
0 0 0 0 0 0 0 0 0 0 0 0 0 0 0 0 0 0 0 0 0 0 0 0 0 0 0 0 0 0 0 0 0 0 0 0 0 0 0 0 0 0 0 0 0 0 0 0 0
0 0 0 0 0 0 0 0 0 0 0 0 0 0 0 0 0 0 0 0 0 0 0 0 0 0 0 0 0 0 0 0 0 0 0 0 0 0 0 0 0 0 0 0 0 0 0 0 0
0 0 0 0 0 0 0 0 0 0 0 0 0 0 0 0 0 0 0 0 0 0 0 0 0 0 0 0 0 0 0 0 0 0 0 0 0 0 0 0 0 0 0 0 0 0 0 0 0
0 0 0 0 0 0 0 0 0 0 0 0 0 0 0 0 0 0 0 0 0 0 0 0 0 0 0 0 0 0 0 0 0 0 0 0 0 0 0 0 0 0 0 0 0 0 0 0 0
0 0 0 0 0 0 0 0 0 0 0 0 0 0 0 0 0 0 0 0 0 0 0 0 0 0 0 0 0 0 0 0 0 0 0 0 0 0 0 0 0 0 0 0 0 0 0 0 0
0 0 0 0 0 0 0 0 0 0 0 0 0 0 0 0 0 0 0 0 0 0 0 0 0 0 0 0 0 0 0 0 0 0 0 0 0 0 0 0 0 0 0 0 0 0 0 0 0
0 0 0 0 0 0 0 0 0 0 0 0 0 0 0 0 0 0 0 0 0 0 0 0 0 0 0 0 0 0 0 0 0 0 0 0 0 0 0 0 0 0 0 0 0 0 0 0 0
0 0 0 0 0 0 0 0 0 0 0 0 0 0 0 0 0 0 0 0 0 0 0 0 0 0 0 0 0 0 0 0 0 0 0 0 0 0 0 0 0 0 0 0 0 0 0 0 0
0 0 0 0 0 0 0 0 0 0 0 0 0 0 0 0 0 0 0 0 0 0 0 0 0 0 0 0 0 0 0 0 0 0 0 0 0 0 0 0 0 0 0 0 0 0 0 0 0
0 0 0 0 0 0 0 0 0 0 0 0 0 0 0 0 0 0 0 0 0 0 0 0 0 0 0 0 0 0 0 0 0 0 0 0 0 0 0 0 0 0 0 0 0 0 0 0 0
0 0 0 0 0 0 0 0 0 0 0 0 0 0 0 0 0 0 0 0 0 0 0 0 0 0 0 0 0 0 0 0 0 0 0 0 0 0 0 0 0 0 0 0 0 0 0 0 0
0 0 0 0 0 0 0 0 0 0 0 0 0 0 0 0 0 0 0 0 0 0 0 0 0 0 0 0 0 0 0 0 0 0 0 0 0 0 0 0 0 0 0 0 0 0 0 0 0
0 0 0 0 0 0 0 0 0 0 0 0 0 0 0 0 0 0 0 0 0 0 0 0 0 0 0 0 0 0 0 0 0 0 0 0 0 0 0 0 0 0 0 0 0 0 0 0 0
0 0 0 0 0 0 0 0 0 0 0 0 0 0 0 0 0 0 0 0 0 0 0 0 0 0 0 0 0 0 0 0 0 0 0 0 0 0 0 0 0 0 0 0 0 0 0 0 0
0 0 0 0 0 0 0 0 0 0 0 0 0 0 0 0 0 0 0 0 0 0 0 0 0 0 0 0 0 0 0 0 0 0 0 0 0 0 0 0 0 0 0 0 0 0 0 0 0
0 0 0 0 0 0 0 0 0 0 0 0 0 0 0 0 0 0 0 0 0 0 0 0 0 0 0 0 0 0 0 0 0 0 0 0 0 0 0 0 0 0 0 0 0 0 0 0 0
0 0 0 0 0 0 0 0 0 0 0 0 0 0 0 0 0 0 0 0 0 0 0 0 0 0 0 0 0 0 0 0 0 0 0 0 0 0 0 0 0 0 0 0 0 0 0 0 0
0 0 0 0 0 0 0 0 0 0 0 0 0 0 0 0 0 0 0 0 0 0 0 0 0 0 0 0 0 0 0 0 0 0 0 0 0 0 0 0 0 0 0 0 0 0 0 0 0
0 0 0 0 0 0 0 0 0 0 0 0 0 0 0 0 0 0 0 0 0 0 0 0 0 0 0 0 0 0 0 0 0 0 0 0 0 0 0 0 0 0 0 0 0 0 0 0 0
0 0 0 0 0 0 0 0 0 0 0 0 0 0 0 0 0 0 0 0 0 0 0 0 0 0 0 0 0 0 0 0 0 0 0 0 0 0 0 0 0 0 0 0 0 0 0 0 0
0 0 0 0 0 0 0 0 0 0 0 0 0 0 0 0 0 0 0 0 0 0 0 0 0 0 0 0 0 0 0 0 0 0 0 0 0 0 0 0 0 0 0 0 0 0 0 0 0
0 0 0 0 0 0 0 0 0 0 0 0 0 0 0 0 0 0 0 0 0 0 0 0 0 0 0 0 0 0 0 0 0 0 0 0 0 0 0 0 0 0 0 0 0 0 0 0 0
0 0 0 0 0 0 0 0 0 0 0 0 0 0 0 0 0 0 0 0 0 0 0 0 0 0 0 0 0 0 0 0 0 0 0 0 0 0 0 0 0 0 0 0 0 0 0 0 0
0 0 0 0 0 0 0 0 0 0 0 0 0 0 0 0 0 0 0 0 0 0 0 0 0 0 0 0 0 0 0 0 0 0 0 0 0 0 0 0 0 0 0 0 0 0 0 0 0
0 0 0 0 0 0 0 0 0 0 0 0 0 0 0 0 0 0 0 0 0 0 0 0 0 0 0 0 0 0 0 0 0 0 0 0 0 0 0 0 0 0 0 0 0 0 0 0 0
0 0 0 0 0 0 0 0 0 0 0 0 0 0 0 0 0 0 0 0 0 0 0 0 0 0 0 0 0 0 0 0 0 0 0 0 0 0 0 0 0 0 0 0 0 0 0 0 0
0 0 0 0 0 0 0 0 0 0 0 0 0 0 0 0 0 0 0 0 0 0 0 0 0 0 0 0 0 0 0 0 0 0 0 0 0 0 0 0 0 0 0 0 0 0 0 0 0
0 0 0 0 0 0 0 0 0 0 0 0 0 0 0 0 0 0 0 0 0 0 0 0 0 0 0 0 0 0 0 0 0 0 0 0 0 0 0 0 0 0 0 0 0 0 0 0 0
0 0 0 0 0 0 0 0 0 0 0 0 0 0 0 0 0 0 0 0 0 0 0 0 0 0 0 0 0 0 0 0 0 0 0 0 0 0 0 0 0 0 0 0 0 0 0 0 0
Height
5862 5862 5862 5863 5864 5865 5865 5866 5866 5867 5868 5869 5870 5871 5872 5873 5875 5877 5876 5874 5875 5875 5875 5875 5875 5875 5875 5874 5874 5874 5874 5874 5873 5873 5873 5872 5872 5872 5873 5873 5873 5873 5873 5873 5873 5873 5873 5873 5874
5864 5864 5865 5865 5865 5865 5866 5866 5866 5867 5868 5869 5869 5870 5871 5871 5872 5873 5873 5873 5873 5873 5873 5873 5873 5873 5873 5873 5872 5872 5872 5872 5871 5871 5870 5870 5870 5870 5870 5870 5870 5870 5870 5870 5870 5870 5870 5871 5871
5865 5865 5866 5866 5865 5866 5866 5867 5867 5868 5868 5869 5869 5869 5870 5870 5870 5871 5871 5871 5872 5872 5872 5872 5872 5871 5871 5871 5870 5870 5870 5869 5869 5869 5868 5868 5868 5868 5868 5868 5868 5868 5868 5868 5868 5868 5868 5868 5868
5866 5867 5867 5867 5866 5866 5866 5867 5868 5869 5869 5869 5869 5869 5869 5869 5869 5870 5870 5870 5870 5870 5870 5870 5869 5869 5869 5869 5868 5868 5868 5867 5867 5867 5866 5866 5866 5866 5865 5865 5865 5865 5865 5865 5865 5865 5865 5865 5865
5867 5867 5868 5867 5867 5867 5866 5867 5867 5868 5869 5869 5869 5868 5868 5869 5868 5868 5868 5868 5868 5868 5868 5867 5867 5867 5867 5866 5866 5866 5865 5865 5865 5864 5864 5864 5863 5863 5863 5863 5863 5863 5863 5863 5863 5863 5862 5862 5862
5868 5867 5868 5867 5867 5867 5866 5866 5867 5867 5868 5868 5868 5867 5867 5867 5867 5866 5866 5866 5866 5866 5866 5865 5865 5865 5864 5864 5864 5863 5863 5863 5863 5862 5862 5861 5861 5861 5860 5860 5860 5860 5860 5860 5860 5860 5859 5859 5859
5868 5867 5867 5867 5866 5866 5866 5865 5865 5866 5866 5866 5866 5866 5865 5865 5865 5864 5864 5863 5863 5863 5863 5863 5862 5862 5862 5862 5861 5861 5861 5860 5860 5860 5859 5859 5858 5858 5858 5857 5857 5857 5857 5857 5857 5856 5856 5856 5856
5867 5868 5866 5866 5865 5865 5865 5864 5864 5864 5864 5864 5864 5864 5863 5863 5862 5862 5861 5861 5861 5861 5860 5860 5860 5859 5859 5859 5858 5858 5858 5857 5857 5857 5856 5856 5856 5855 5855 5854 5854 5854 5853 5853 5853 5853 5852 5852 5851
5867 5868 5866 5865 5865 5864 5864 5863 5863 5863 5862 5862 5862 5861 5861 5860 5859 5859 5858 5858 5858 5857 5857 5857 5856 5856 5856 5855 5855 5855 5854 5854 5854 5853 5853 5853 5852 5852 5851 5851 5850 5850 5849 5849 5848 5848 5848 5847 5847
5866 5866 5865 5864 5864 5863 5862 5862 5861 5861 5860 5860 5859 5858 5857 5857 5856 5856 5855 5854 5854 5854 5853 5853 5853 5852 5852 5852 5851 5851 5851 5850 5850 5849 5849 5848 5848 5847 5847 5846 5846 5845 5845 5844 5844 5843 5842 5842 5841
5865 5864 5864 5863 5862 5861 5861 5860 5859 5859 5858 5858 5857 5856 5855 5854 5853 5852 5852 5851 5850 5850 5849 5849 5849 5848 5848 5847 5847 5847 5846 5845 5845 5845 5844 5844 5843 5843 5842 5841 5841 5840 5840 5839 5838 5837 5837 5836 5835
5863 5862 5861 5861 5860 5859 5859 5858 5857 5856 5856 5855 5854 5852 5851 5850 5849 5849 5848 5847 5846 5845 5845 5845 5844 5844 5843 5843 5842 5841 5841 5840 5840 5839 5839 5838 5838 5837 5836 5836 5835 5834 5833 5833 5832 5831 5830 5829 5828
5860 5859 5858 5858 5857 5856 5856 5855 5855 5854 5853 5852 5850 5849 5848 5847 5846 5845 5844 5843 5842 5841 5840 5840 5839 5839 5838 5838 5837 5836 5835 5834 5834 5833 5833 5832 5831 5831 5830 5829 5829 5828 5826 5826 5825 5824 5823 5822 5821
5856 5855 5855 5854 5854 5853 5852 5852 5851 5851 5850 5848 5847 5845 5844 5843 5842 5841 5840 5839 5838 5836 5835 5834 5834 5833 5833 5832 5831 5830 5829 5829 5828 5827 5826 5825 5825 5824 5823 5822 5821 5820 5819 5818 5817 5816 5815 5813 5812
5851 5851 5851 5850 5850 5849 5849 5848 5848 5847 5846 5844 5843 5842 5840 5839 5838 5837 5836 5834 5833 5832 5831 5829 5828 5827 5827 5826 5825 5824 5823 5822 5821 5820 5819 5818 5817 5816 5815 5814 5813 5811 5810 5809 5808 5807 5806 5804 5803
5847 5847 5846 5846 5845 5845 5846 5844 5844 5843 5842 5840 5839 5837 5836 5835 5834 5832 5831 5830 5829 5827 5826 5825 5823 5822 5821 5820 5819 5818 5816 5815 5814 5813 5811 5810 5809 5807 5806 5805 5804 5802 5801 5800 5799 5797 5796 5794 5792
5842 5842 5841 5841 5841 5840 5840 5839 5838 5839 5838 5836 5835 5833 5832 5831 5829 5828 5827 5825 5824 5823 5821 5820 5818 5817 5815 5814 5812 5811 5810 5808 5806 5805 5803 5801 5800 5799 5797 5796 5795 5792 5791 5789 5788 5786 5785 5783 5781
5838 5837 5836 5836 5836 5836 5835 5834 5833 5834 5833 5832 5831 5829 5828 5827 5825 5824 5822 5821 5819 5817 5816 5814 5813 5811 5810 5808 5806 5805 5803 5801 5799 5797 5795 5793 5791 5789 5788 5787 5785 5782 5780 5778 5776 5774 5772 5771 5768
5833 5832 5832 5832 5832 5832 5831 5831 5830 5829 5829 5828 5827 5825 5824 5822 5821 5819 5818 5816 5814 5812 5811 5809 5807 5806 5804 5802 5800 5798 5796 5793 5791 5789 5787 5785 5782 5780 5778 5777 5775 5772 5770 5767 5765 5762 5760 5758 5754
5828 5828 5827 5827 5827 5827 5827 5827 5827 5826 5825 5824 5823 5821 5820 5818 5817 5815 5813 5811 5809 5807 5805 5803 5801 5799 5797 5795 5793 5791 5788 5786 5783 5781 5779 5776 5774 5771 5769 5766 5764 5761 5759 5756 5753 5750 5747 5744 5740
5823 5824 5823 5823 5823 5823 5824 5824 5824 5823 5821 5820 5818 5817 5815 5814 5812 5810 5808 5806 5804 5801 5799 5797 5794 5792 5790 5787 5785 5783 5781 5778 5776 5773 5771 5768 5765 5763 5760 5757 5753 5750 5747 5744 5740 5736 5732 5729 5726
5819 5819 5819 5819 5819 5820 5820 5821 5820 5819 5817 5816 5814 5812 5811 5809 5807 5805 5803 5800 5798 5795 5793 5790 5788 5785 5783 5780 5778 5775 5773 5771 5768 5766 5763 5759 5756 5753 5750 5747 5743 5740 5736 5732 5728 5723 5719 5714 5711
5815 5815 5816 5816 5815 5816 5816 5816 5817 5815 5813 5811 5810 5808 5805 5803 5801 5799 5796 5794 5792 5789 5786 5784 5781 5778 5776 5773 5771 5768 5766 5763 5760 5757 5755 5751 5748 5744 5740 5736 5732 5728 5724 5720 5715 5710 5705 5700 5696
5811 5812 5812 5812 5812 5813 5812 5811 5812 5810 5808 5806 5804 5802 5799 5797 5795 5792 5790 5787 5785 5782 5780 5777 5775 5772 5769 5767 5764 5762 5759 5756 5753 5749 5746 5742 5738 5734 5729 5725 5720 5716 5711 5706 5701 5695 5690 5685 5680
5808 5808 5808 5808 5808 5808 5807 5806 5807 5805 5802 5800 5798 5796 5793 5791 5788 5785 5782 5780 5778 5775 5773 5771 5768 5766 5763 5761 5758 5755 5752 5748 5745 5741 5737 5733 5728 5723 5718 5712 5707 5702 5696 5691 5685 5679 5674 5668 5662
5803 5804 5804 5804 5804 5803 5802 5801 5801 5799 5796 5793 5791 5789 5786 5783 5781 5778 5775 5773 5770 5768 5766 5764 5762 5759 5756 5753 5750 5747 5743 5740 5736 5731 5727 5722 5717 5711 5705 5699 5693 5687 5681 5674 5668 5662 5655 5649 5643
5799 5799 5798 5798 5798 5798 5797 5797 5795 5792 5789 5786 5784 5781 5779 5776 5774 5771 5768 5766 5764 5762 5760 5757 5755 5752 5749 5745 5742 5738 5734 5730 5725 5720 5715 5709 5703 5697 5691 5684 5677 5670 5663 5656 5649 5642 5635 5628 5622
5794 5794 5794 5792 5791 5791 5792 5791 5789 5786 5783 5780 5777 5774 5772 5769 5766 5764 5761 5759 5757 5755 5752 5750 5747 5744 5740 5736 5732 5728 5723 5718 5713 5707 5701 5694 5688 5681 5674 5667 5659 5652 5644 5635 5628 5621 5613 5606 5599
5788 5789 5787 5786 5786 5785 5784 5788 5783 5779 5775 5772 5770 5767 5765 5762 5759 5756 5754 5752 5750 5747 5745 5742 5738 5734 5730 5726 5721 5716 5711 5705 5699 5692 5686 5678 5671 5664 5656 5648 5640 5631 5622 5613 5605 5597 5589 5581 5574
5782 5782 5781 5781 5780 5778 5777 5781 5776 5771 5767 5764 5762 5760 5757 5754 5751 5749 5747 5745 5742 5739 5736 5732 5728 5724 5720 5715 5709 5704 5697 5691 5684 5677 5669 5661 5653 5644 5635 5627 5618 5608 5599 5589 5579 5571 5562 5554 5547
Wind_Speed
10 10 9 7 5 3 2 3 5 6 8 10 10 10 10 10 9 8 8 9 9 9 10 10 10 10 10 11 11 11 11 12 11 11 10 10 9 9 9 9 9 10 10 11 11 12 12 13 13
10 10 9 9 8 7 5 2 2 4 6 8 9 9 9 9 9 8 8 8 8 9 9 10 10 11 11 11 11 11 12 11 11 10 9 9 9 8 8 8 9 9 10 10 11 11 12 12 13
9 9 9 8 7 7 6 5 2 2 4 6 7 8 8 8 8 7 8 8 8 9 10 10 11 11 12 12 12 12 11 11 10 9 9 9 9 9 8 8 9 9 9 10 10 11 12 12 13
7 7 7 6 5 5 4 3 2 1 3 5 6 6 7 8 8 8 8 9 9 10 11 11 12 12 12 12 12 12 11 11 10 9 9 9 9 9 9 9 9 9 9 10 10 11 12 12 13
6 6 5 4 3 2 2 1 1 3 4 5 6 7 8 8 8 9 9 10 11 12 12 13 13 13 13 13 12 12 11 11 10 10 9 9 9 9 9 9 9 9 10 10 11 11 12 13 13
5 5 4 3 2 1 1 2 3 5 6 7 8 9 9 9 9 10 11 12 12 12 13 13 14 14 14 13 13 13 12 11 11 11 10 10 10 10 10 10 10 10 10 11 11 12 12 13 14
4 4 4 3 2 3 3 4 5 6 8 9 10 11 11 10 10 11 12 13 13 13 13 14 14 14 14 14 14 14 13 13 12 12 12 12 11 11 12 12 12 12 12 13 13 14 14 15 15
4 4 4 4 4 5 5 5 6 8 9 10 11 11 12 12 12 13 14 14 14 14 14 14 15 16 16 15 15 15 15 15 14 14 14 14 14 14 14 14 15 15 15 16 16 16 17 18 18
5 5 5 6 6 7 7 7 8 9 10 10 10 11 13 14 14 14 15 15 15 15 15 16 16 17 17 17 17 17 17 17 17 17 17 17 17 17 17 18 18 18 19 19 20 20 21 21 22
7 7 7 7 8 9 9 9 9 9 9 8 9 12 13 15 15 15 15 16 16 17 17 18 18 18 19 19 19 19 20 20 20 20 20 20 21 21 21 22 22 22 23 23 23 24 24 25 25
11 11 10 10 10 10 11 11 11 11 11 9 10 13 14 15 16 16 16 17 18 19 19 20 20 20 21 21 22 22 23 23 23 24 24 24 25 25 26 26 26 26 27 27 28 28 28 29 29
15 15 14 14 13 13 13 13 12 12 12 12 13 14 15 16 17 17 18 18 19 20 21 21 22 22 23 24 25 25 26 26 27 27 27 28 29 29 30 30 30 31 31 32 32 32 33 33 34
19 18 18 17 16 15 15 15 15 15 14 14 15 16 16 17 18 18 18 19 20 22 22 23 23 24 25 25 27 28 29 30 30 31 31 32 33 33 34 35 35 36 36 37 37 37 37 38 38
22 22 21 20 20 19 18 18 17 16 16 16 16 17 17 18 18 19 19 19 20 21 23 24 25 26 26 27 28 30 31 31 32 33 34 35 36 37 38 39 39 40 41 41 41 42 42 43 43
24 24 24 23 22 21 21 21 19 17 17 18 18 18 18 19 19 20 20 20 21 21 23 24 26 27 28 29 30 31 32 33 34 35 36 37 38 39 40 41 43 44 45 46 46 46 47 47 48
26 25 25 25 24 23 23 23 20 17 17 19 19 19 19 20 20 21 21 21 22 22 23 24 25 27 28 29 30 31 32 33 34 36 37 38 40 41 42 43 44 47 48 49 49 50 51 51 52
26 26 25 26 24 23 23 23 21 17 17 18 19 20 20 21 22 22 23 23 24 24 24 25 25 26 28 29 30 31 32 33 35 37 38 40 41 42 43 44 46 48 49 50 51 52 54 54 55
25 24 24 24 22 22 21 21 21 18 18 18 19 20 21 22 22 23 24 25 25 26 26 27 27 28 29 30 30 31 32 34 35 37 39 40 42 43 44 45 46 48 50 51 52 53 55 56 57
23 23 23 23 21 20 20 19 19 19 18 18 19 20 22 23 23 24 25 26 27 27 28 29 29 29 30 31 32 32 33 35 36 38 39 41 42 44 45 45 47 48 50 51 53 54 56 56 58
22 21 21 21 19 18 18 18 17 18 18 19 20 22 23 24 25 26 27 28 29 29 30 31 31 32 32 32 33 33 34 35 36 38 39 40 42 43 44 46 47 49 50 52 53 55 57 57 59
21 20 19 19 18 17 17 16 16 17 18 20 21 23 24 25 25 27 28 30 31 31 32 33 33 33 34 34 34 34 35 35 36 37 38 40 41 43 44 46 48 49 51 52 54 56 58 59 61
19 18 17 17 18 17 16 15 15 17 19 21 23 24 26 26 27 29 30 32 32 33 33 33 33 33 33 33 33 34 34 35 36 37 38 39 40 41 43 45 47 49 51 53 55 57 59 61 62
18 18 17 17 17 17 17 17 16 17 19 22 24 26 27 29 30 31 32 33 33 33 32 32 32 31 31 31 31 32 32 33 34 35 36 38 40 42 44 46 47 49 51 52 55 57 59 61 63
18 18 17 17 18 17 17 18 18 19 21 23 25 27 29 30 31 32 32 32 32 32 32 30 29 29 29 29 29 30 31 33 34 36 38 40 42 44 46 48 50 52 54 55 57 59 61 63 65
19 19 19 19 18 17 18 20 20 21 24 25 27 29 30 31 32 32 32 32 32 31 30 28 28 28 29 29 31 32 33 35 37 39 41 43 45 48 50 52 54 56 58 60 62 64 65 67 68
21 20 21 20 19 18 20 21 23 25 27 28 29 30 31 31 31 32 32 32 31 30 29 29 29 29 30 31 33 35 37 39 41 43 45 48 50 52 55 57 59 62 64 66 67 69 70 71 73
22 22 22 23 22 21 22 23 25 27 29 30 31 31 31 31 31 32 32 31 31 30 30 30 31 32 33 35 37 39 41 44 46 49 51 54 56 58 60 63 65 67 69 71 73 74 75 76 77
24 23 24 24 26 25 24 25 27 29 30 31 31 31 31 31 31 32 32 32 31 32 32 33 34 36 38 40 42 44 47 49 52 54 57 60 62 65 67 69 71 73 75 77 78 79 80 80 81
25 25 26 27 28 29 28 26 28 31 32 32 32 32 32 32 32 33 33 33 33 34 35 36 38 40 42 45 47 49 52 55 57 60 63 66 68 71 73 75 77 79 80 82 83 84 84 85 85
27 27 28 29 30 31 31 30 29 32 33 34 34 33 33 34 34 34 34 35 35 37 38 40 42 44 47 50 52 55 58 60 63 66 69 72 74 76 79 81 82 84 85 86 87 88 88 88 88
Wind_Direction
62 63 65 66 72 92 157 212 221 226 226 225 223 223 225 228 230 236 244 250 254 256 259 261 261 262 263 263 265 267 269 269 268 268 267 265 264 263 264 265 266 267 268 268 268 268 267 266 264
67 68 67 68 68 73 78 90 176 209 219 218 215 215 218 223 227 227 233 243 250 256 260 263 264 265 266 267 269 271 271 269 267 267 265 265 265 265 266 267 269 270 270 270 271 271 271 271 270
67 67 69 70 69 72 75 76 88 175 206 208 208 209 213 220 224 228 234 242 250 257 262 265 267 269 269 269 271 272 272 268 266 265 264 265 266 268 268 269 270 271 272 272 273 274 275 274 274
62 63 64 68 68 71 76 79 89 187 215 216 216 217 220 225 232 237 241 247 253 259 263 266 269 270 270 271 272 272 270 267 266 265 265 266 268 270 270 271 271 272 274 275 275 276 277 277 276
49 53 56 59 57 59 72 104 205 234 245 245 242 242 240 238 243 248 251 254 257 261 265 268 270 270 270 270 270 270 267 265 265 266 268 269 270 271 272 272 273 274 275 276 276 276 277 278 278
33 32 34 30 11 336 270 249 242 249 251 253 253 255 256 252 253 258 260 262 264 266 268 269 271 270 270 270 269 268 265 263 264 266 267 269 270 272 273 274 274 274 274 275 275 277 278 279 279
17 17 13 358 330 306 283 273 262 260 260 259 259 261 266 264 261 262 264 267 269 270 270 270 270 270 270 270 268 266 264 263 264 265 266 267 269 270 272 273 274 275 276 277 277 278 279 280 280
352 357 353 342 323 310 302 288 278 269 266 266 264 264 270 271 267 265 266 269 271 272 271 269 269 269 268 268 267 265 264 264 263 263 264 266 267 268 270 272 273 274 275 276 277 278 279 279 280
317 326 330 330 325 320 313 300 291 283 276 275 272 268 268 270 270 270 269 271 272 271 270 268 266 267 267 266 265 264 264 263 263 263 264 265 267 268 269 270 272 273 274 275 276 277 278 279 280
297 305 312 316 319 318 316 310 303 297 292 287 277 269 270 271 272 272 272 271 271 270 268 266 265 265 265 265 264 264 264 263 263 263 263 265 266 267 268 269 270 271 273 274 275 276 277 279 280
287 292 299 304 309 310 311 309 306 301 299 294 282 278 275 274 273 273 272 271 270 269 268 267 266 266 266 265 264 263 263 263 263 263 264 265 266 266 268 269 270 271 272 274 275 277 278 280 281
279 284 289 293 297 300 302 303 302 299 295 294 287 282 279 277 276 274 272 270 270 271 271 271 270 269 267 266 265 264 264 263 263 264 265 265 266 266 267 269 270 272 273 274 276 277 279 280 281
276 280 284 287 290 292 295 297 298 296 294 290 286 284 282 281 281 280 277 274 273 273 274 274 274 272 271 269 268 267 266 266 266 266 266 266 267 267 268 269 270 272 273 275 277 278 279 281 282
274 277 280 284 286 288 291 293 294 294 292 288 286 285 284 284 284 284 283 280 278 277 277 277 276 275 274 272 271 271 270 270 270 270 269 269 270 270 270 270 271 272 274 275 277 278 279 281 282
272 274 277 280 282 285 286 287 290 291 288 287 287 286 285 286 286 285 285 284 282 281 280 280 280 278 277 276 275 275 275 274 273 273 273 272 272 272 272 272 272 273 274 275 277 278 279 280 281
270 272 274 277 279 281 282 283 286 285 284 284 286 287 287 287 287 287 286 286 285 283 282 282 281 280 280 279 279 278 277 277 276 275 275 274 274 274 274 274 274 275 276 277 277 278 279 279 280
269 270 272 275 276 277 279 282 286 284 282 282 284 286 287 288 288 288 288 288 287 287 286 285 284 284 283 283 282 281 281 280 279 279 278 277 277 276 276 276 276 276 277 278 278 278 278 279 280
269 269 270 273 275 276 277 280 285 287 284 282 283 284 286 287 287 288 289 289 289 289 288 288 287 286 285 285 285 285 284 283 283 282 282 281 281 281 280 280 279 279 279 279 279 279 280 280 280
269 268 268 271 273 273 275 278 281 283 283 282 282 283 284 285 286 287 288 289 289 289 288 288 288 288 287 287 287 287 286 286 286 286 286 286 285 285 285 285 284 284 283 283 282 282 282 281 281
268 267 268 269 271 271 272 274 275 276 278 278 279 280 282 284 285 286 288 288 289 289 289 289 289 289 288 288 288 288 287 287 287 287 288 288 288 287 287 287 287 287 287 286 286 286 285 285 284
266 265 266 269 272 271 270 270 272 273 275 276 278 280 282 285 287 288 288 289 289 289 289 290 291 290 290 290 289 289 289 289 290 290 290 290 289 289 289 289 289 288 288 288 288 287 287 286 286
263 263 263 266 270 271 272 271 271 274 276 277 279 282 286 288 289 289 289 288 289 289 290 291 292 292 292 292 292 292 292 292 292 292 292 292 292 291 291 290 289 289 289 288 287 287 287 286 286
261 262 262 264 267 271 274 276 275 277 279 281 283 286 287 288 288 288 288 288 288 289 290 292 293 294 294 295 295 295 295 295 295 295 296 296 296 295 294 293 293 292 291 289 288 287 287 286 286
261 262 263 264 268 271 275 279 281 283 284 286 287 287 287 288 288 288 288 288 288 290 291 293 294 295 296 297 297 297 298 298 298 298 298 298 297 297 296 295 294 293 292 291 290 289 288 287 286
261 263 265 265 267 272 277 281 286 288 288 289 289 289 289 289 289 289 288 288 289 291 292 293 294 296 297 298 298 299 299 299 299 299 299 298 298 297 296 296 295 294 293 292 291 290 289 288 287
261 264 267 270 271 274 278 284 290 291 291 291 291 290 290 290 290 288 288 289 290 291 293 294 296 297 298 299 299 299 299 299 299 299 299 298 297 296 296 295 295 294 293 292 291 290 289 288 286
263 265 268 272 273 276 281 287 290 292 292 292 292 291 291 290 290 288 287 288 290 292 293 295 297 298 298 299 300 300 300 300 299 299 298 298 297 297 296 295 295 294 293 292 291 290 289 288 287
264 267 270 273 277 280 283 289 292 293 292 291 291 291 291 291 289 288 287 288 290 292 295 296 297 298 299 299 299 300 300 300 300 299 299 299 298 298 297 296 296 295 294 293 292 291 290 288 287
266 269 270 273 278 283 286 291 295 293 293 291 291 291 291 291 289 287 287 289 292 293 295 297 298 298 299 299 300 301 301 301 301 301 300 300 299 298 298 297 296 295 294 294 293 292 290 289 288
268 270 272 275 279 284 288 295 295 293 291 290 291 291 290 289 288 287 288 291 293 295 296 297 298 298 299 300 301 301 302 302 301 301 301 300 300 299 298 298 297 297 296 295 294 292 291 290 288